Flag for West Bank Weather past 2 weeks in Nablus, West Bank

Now
61 °F

Passing clouds.


Feels Like: 61 °F
Forecast: 44 / 55 °F
Wind: 8 mph from Northwest

Location: Ben Gurion International Airport

Current Time: Mar 3, 2015 at 6:06:09 PM

Latest Report: Mar 3, 2015 at 5:20 PM


Visibility: N/A

Pressure: 30.12 "Hg

Humidity: 72%

Dew point: 52 °F

Location of NablusLocation

Historic Weather in Nablus — Graph

°F

Nablus temperature yesterday

Maximum temperature yesterday: 66 °F (at 11:50 AM)
Minimum temperature yesterday: 52 °F (at 4:50 AM)
Average temperature yesterday: 59 °F

Past Weeks' High & Low Weather Summary

 TemperatureHumidityPressure
High86 °F (Feb 27, 1:50 PM)94% (Feb 18, 4:20 AM)30.21 "Hg (Feb 18, 4:20 AM)
Low41 °F (Feb 19, 11:20 PM)19% (Feb 27, 11:50 AM)29.71 "Hg (Feb 20, 4:50 AM)
Average58 °F67%30.02 "Hg
* Reported Feb 16 4:20 PM — Mar 3 4:50 PM, Nablus, Weather by CustomWeather, © 2015

Note: Actual official high and low records may vary slightly from our data, if they occured in-between our weather recording intervals... More about our weather records

Advertising

Nablus weather history for previous 24 hours

 ConditionsComfort  
Time TempWeatherWind HumidityBarometerVisibility
4:50 PM
Tue, Mar 3
63 °FPassing clouds.8 mph68%30.12 "HgN/A
4:20 PM64 °FPassing clouds.10 mph60%30.12 "HgN/A
3:50 PM64 °FPassing clouds.10 mph60%30.12 "HgN/A
3:20 PM66 °FPassing clouds.10 mph56%30.09 "HgN/A
2:50 PM66 °FPassing clouds.9 mph56%30.12 "HgN/A
2:20 PM64 °FPassing clouds.12 mph56%30.12 "HgN/A
1:50 PM66 °FPassing clouds.10 mph52%30.12 "HgN/A
1:20 PM66 °FScattered clouds.8 mph49%30.12 "HgN/A
12:50 PM66 °FScattered clouds.8 mph49%30.12 "HgN/A
12:20 PM66 °FScattered clouds.9 mph52%30.12 "HgN/A
11:50 AM66 °FScattered clouds.8 mph52%30.15 "HgN/A
11:20 AM64 °FScattered clouds.8 mph56%30.15 "HgN/A
10:50 AM64 °FScattered clouds.5 mph56%30.15 "HgN/A
10:20 AM66 °FPartly sunny.5 mph56%30.15 "HgN/A
9:50 AM64 °FPartly sunny.3 mph60%30.15 "HgN/A
9:20 AM63 °FScattered clouds.3 mph64%30.15 "HgN/A
8:50 AM64 °FPassing clouds.1 mph64%30.18 "HgN/A
8:20 AM59 °FSunny.6 mph77%30.15 "Hg10 mi
7:50 AM57 °FSunny.5 mph77%30.15 "Hg10 mi
7:20 AM55 °FSunny.5 mph77%30.15 "Hg10 mi
6:50 AM52 °FSunny.3 mph88%30.15 "Hg10 mi
6:20 AM52 °FPassing clouds.3 mph82%30.15 "HgN/A
5:50 AM52 °FPassing clouds.3 mph88%30.15 "HgN/A
5:20 AM52 °FClear.3 mph88%30.12 "Hg10 mi
4:50 AM52 °FClear.3 mph88%30.12 "Hg10 mi
4:20 AM52 °FClear.1 mph88%30.12 "Hg10 mi
3:50 AM54 °FClear.2 mph82%30.12 "Hg10 mi
3:20 AM54 °FClear.5 mph82%30.12 "Hg10 mi
2:50 AM54 °FClear.5 mph82%30.12 "Hg10 mi
2:20 AM54 °FPassing clouds.2 mph82%30.12 "HgN/A
1:50 AM54 °FPassing clouds.3 mph82%30.12 "HgN/A
1:20 AM55 °FPassing clouds.5 mph77%30.15 "HgN/A
12:50 AM55 °FPassing clouds.2 mph82%30.15 "HgN/A
12:20 AM55 °FPassing clouds.2 mph82%30.15 "HgN/A
11:50 PM
Mon, Mar 2
55 °FPassing clouds.3 mph82%30.15 "HgN/A
11:20 PM55 °FPassing clouds.3 mph82%30.15 "HgN/A
10:50 PM57 °FPassing clouds.5 mph77%30.15 "HgN/A
10:20 PM57 °FPassing clouds.6 mph77%30.15 "HgN/A
9:50 PM57 °FClear.3 mph77%30.15 "Hg10 mi
9:20 PM57 °FClear.5 mph77%30.15 "Hg10 mi
8:50 PM57 °FClear.1 mph77%30.15 "Hg10 mi
8:20 PM59 °FPassing clouds.3 mph68%30.15 "HgN/A
7:50 PM59 °FPassing clouds.6 mph72%30.12 "HgN/A
7:20 PM59 °FPassing clouds.5 mph72%30.12 "HgN/A
6:50 PM59 °FPassing clouds.7 mph72%30.12 "HgN/A
6:20 PM61 °FPassing clouds.7 mph68%30.12 "HgN/A
Weather by CustomWeather, © 2015

See weather overviewHow to use our weather pages